Location: ?????
(31.8092°N, 35.2590°E)
Time: 03:52:47
(UTC+00:00)

Cosmos 2360 Rocket - Pass Details

Date: 19 October 2021
Orbit: 832 x 846 km, 71.0° (Epoch: 07 December)

Event Time Altitude Azimuth Distance (km) Brightness Sun altitude
Rises 17:47:23 0° 221° (SW) 3,368 5.7 -35.7°
Reaches altitude 10° 17:50:00 10° 230° (SW) 2,440 5.0 -36.3°
Enters shadow 17:53:50 32° 268° (W) 1,404 3.7 -37.1°
